Weather History for Melfa, VA

Change the Weather History Date:

Monday, August 5, 2013

  Actual Average (KWAL) Record (KWAL)
Temperature  
Mean Temperature 70 °F 76 °F  
Max Temperature 80 °F 84 °F 96 °F (1995)
Min Temperature 60 °F 69 °F 58 °F (1985)
Degree Days  
Heating Degree Days 0    
Month to date heating degree days  
Since 1 June heating degree days  
Since 1 July heating degree days  
Cooling Degree Days 5    
Month to date cooling degree days  
Year to date cooling degree days  
Since 1 June cooling degree days  
Growing Degree Days 20 (Base 50)    
Moisture  
Dew Point 62 °F    
Average Humidity 73    
Maximum Humidity 94    
Minimum Humidity 45    
Precipitation  
Precipitation 0.00 in 0.16 in 1.54 in (2004)
Month to date precipitation 0.76  
Year to date precipitation 23.96  
Sea Level Pressure  
Sea Level Pressure 30.06 in    
Wind  
Wind Speed 2 mph (ESE)    
Max Wind Speed 9 mph    
Max Gust Speed -    
Visibility 10 miles    
Events      
T = Trace of Precipitation, MM = Missing Value Source: NWS Daily Summary

Daily Weather History Graph

Daily Weather History Graph

Search for Another Location

Airport:

Trip Planner

Search our weather history database for the weather conditions in past years. The results will help you decide how hot, cold, wet, or windy it might be!

Date:

Astronomy

Aug. 05, 2013 Rise Set
Actual Time 6:10 AM EDT 8:07 PM EDT
Civil Twilight 5:41 AM EDT 8:35 PM EDT
Nautical Twilight 5:06 AM EDT 9:10 PM EDT
Astronomical Twilight 4:29 AM EDT 9:47 PM EDT
Moon 5:03 AM EDT (8/5) 7:06 PM EDT (8/5)
Length of Visible Light 14h 53m
Length of Day
13h 56m
Waning Crescent, 1% of the Moon is Illuminated
Aug 5
Waning Crescent
Aug 6
New
Aug 14
First Quarter
Aug 20
Full
Aug 28
Last Quarter

Hourly Weather History & Observations

Time (EDT) Temp. Heat Index Dew Point Humidity Pressure Visibility Wind Dir Wind Speed Gust Speed Precip Events Conditions
12:15 AM 64.4 °F - 60.8 °F 88% 30.03 in 10.0 mi Calm Calm - N/A   Clear
12:35 AM 64.4 °F - 60.8 °F 88% 30.03 in 10.0 mi Calm Calm - N/A   Clear
12:55 AM 64.4 °F - 60.8 °F 88% 30.04 in 10.0 mi Calm Calm - N/A   Clear
1:15 AM 64.4 °F - 60.8 °F 88% 30.03 in 10.0 mi Calm Calm - N/A   Clear
1:35 AM 62.6 °F - 60.8 °F 94% 30.03 in 10.0 mi Calm Calm - N/A   Clear
1:55 AM 62.6 °F - 60.8 °F 94% 30.02 in 10.0 mi Calm Calm - N/A   Clear
2:15 AM 62.6 °F - 60.8 °F 94% 30.02 in 10.0 mi Calm Calm - N/A   Clear
2:35 AM 62.6 °F - 60.8 °F 94% 30.02 in 10.0 mi Calm Calm - N/A   Clear
2:55 AM 62.6 °F - 60.8 °F 94% 30.02 in 10.0 mi North 3.5 mph - N/A   Clear
3:15 AM 62.6 °F - 60.8 °F 94% 30.02 in 10.0 mi Calm Calm - N/A   Clear
3:35 AM 60.8 °F - 59.0 °F 94% 30.02 in 10.0 mi North 3.5 mph - N/A   Clear
3:55 AM 62.6 °F - 59.0 °F 88% 30.03 in 10.0 mi Calm Calm - N/A   Clear
4:15 AM 62.6 °F - 60.8 °F 94% 30.02 in 10.0 mi Calm Calm - N/A   Clear
4:36 AM 62.6 °F - 60.8 °F 94% 30.02 in 10.0 mi Calm Calm - N/A   Clear
4:55 AM 62.6 °F - 60.8 °F 94% 30.02 in 10.0 mi Calm Calm - N/A   Clear
5:15 AM 62.6 °F - 60.8 °F 94% 30.02 in 10.0 mi North 3.5 mph - N/A   Clear
5:35 AM 62.6 °F - 60.8 °F 94% 30.03 in 10.0 mi Calm Calm - N/A   Clear
5:55 AM 62.6 °F - 60.8 °F 94% 30.04 in 10.0 mi Calm Calm - N/A   Clear
6:15 AM 62.6 °F - 60.8 °F 94% 30.05 in 10.0 mi Calm Calm - N/A   Clear
6:35 AM 62.6 °F - 60.8 °F 94% 30.06 in 10.0 mi NE 6.9 mph - N/A   Clear
6:55 AM 66.2 °F - 60.8 °F 83% 30.06 in 10.0 mi NE 5.8 mph - N/A   Clear
7:15 AM 66.2 °F - 60.8 °F 83% 30.07 in 10.0 mi NE 4.6 mph - N/A   Clear
7:36 AM 68.0 °F - 62.6 °F 83% 30.07 in 10.0 mi NE 3.5 mph - N/A   Clear
7:55 AM 69.8 °F - 62.6 °F 78% 30.07 in 10.0 mi NE 3.5 mph - N/A   Clear
8:15 AM 71.6 °F - 62.6 °F 73% 30.08 in 10.0 mi ENE 5.8 mph - N/A   Clear
8:35 AM 71.6 °F - 62.6 °F 73% 30.08 in 10.0 mi ENE 3.5 mph - N/A   Clear
8:56 AM 75.2 °F - 64.4 °F 69% 30.08 in 10.0 mi East 6.9 mph - N/A   Clear
9:15 AM 75.2 °F - 64.4 °F 69% 30.09 in 10.0 mi ENE 8.1 mph - N/A   Clear
9:35 AM 75.2 °F - 62.6 °F 65% 30.08 in 10.0 mi East 4.6 mph - N/A   Clear
9:55 AM 77.0 °F - 62.6 °F 61% 30.09 in 10.0 mi East 4.6 mph - N/A   Clear
10:15 AM 78.8 °F - 62.6 °F 57% 30.10 in 10.0 mi ENE 8.1 mph - N/A   Clear
10:35 AM 78.8 °F - 60.8 °F 54% 30.10 in 10.0 mi ENE 6.9 mph - N/A   Clear
10:55 AM 78.8 °F - 62.6 °F 57% 30.10 in 10.0 mi ENE 9.2 mph - N/A   Clear
11:15 AM 78.8 °F - 60.8 °F 54% 30.10 in 10.0 mi East 4.6 mph - N/A   Clear
11:35 AM 78.8 °F - 60.8 °F 54% 30.10 in 10.0 mi SE 4.6 mph - N/A   Clear
11:55 AM 78.8 °F - 60.8 °F 54% 30.10 in 10.0 mi East 5.8 mph - N/A   Scattered Clouds
12:15 PM 77.0 °F - 57.2 °F 50% 30.10 in 10.0 mi Calm Calm - N/A   Scattered Clouds
12:35 PM 78.8 °F - 59.0 °F 51% 30.10 in 10.0 mi SE 3.5 mph - N/A   Scattered Clouds
12:55 PM 80.6 °F 80.8 °F 57.2 °F 45% 30.09 in 10.0 mi SSE 5.8 mph - N/A   Scattered Clouds
1:15 PM 80.6 °F 80.8 °F 57.2 °F 45% 30.09 in 10.0 mi South 3.5 mph - N/A   Scattered Clouds
1:35 PM 78.8 °F - 57.2 °F 47% 30.08 in 10.0 mi East 3.5 mph - N/A   Scattered Clouds
1:55 PM 78.8 °F - 59.0 °F 51% 30.07 in 10.0 mi SSE 4.6 mph - N/A   Mostly Cloudy
2:15 PM 78.8 °F - 60.8 °F 54% 30.07 in 10.0 mi SE 6.9 mph - N/A   Mostly Cloudy
2:55 PM 80.6 °F 81.5 °F 60.8 °F 51% 30.07 in 10.0 mi South 4.6 mph - N/A   Mostly Cloudy
3:15 PM 78.8 °F - 60.8 °F 54% 30.06 in 10.0 mi ESE 5.8 mph - N/A   Overcast
3:35 PM 78.8 °F - 59.0 °F 51% 30.05 in 10.0 mi ESE 5.8 mph - N/A   Overcast
3:55 PM 78.8 °F - 60.8 °F 54% 30.05 in 10.0 mi Calm Calm - N/A   Mostly Cloudy
4:15 PM 80.6 °F 81.5 °F 60.8 °F 51% 30.04 in 10.0 mi South 3.5 mph - N/A   Scattered Clouds
4:35 PM 78.8 °F - 62.6 °F 57% 30.05 in 10.0 mi SSE 3.5 mph - N/A   Scattered Clouds
4:55 PM 78.8 °F - 62.6 °F 57% 30.05 in 10.0 mi SSE 4.6 mph - N/A   Scattered Clouds
5:16 PM 78.8 °F - 62.6 °F 57% 30.05 in 10.0 mi SSE 4.6 mph - N/A   Clear
5:35 PM 77.0 °F - 62.6 °F 61% 30.05 in 10.0 mi SSE 5.8 mph - N/A   Clear
5:55 PM 77.0 °F - 62.6 °F 61% 30.05 in 10.0 mi SSE 3.5 mph - N/A   Clear
6:15 PM 78.8 °F - 62.6 °F 57% 30.04 in 10.0 mi SSE 3.5 mph - N/A   Clear
6:35 PM 78.8 °F - 62.6 °F 57% 30.05 in 10.0 mi SE 3.5 mph - N/A   Clear
6:57 PM 77.0 °F - 62.6 °F 61% 30.06 in 10.0 mi South 4.6 mph - N/A   Clear
7:15 PM 75.2 °F - 62.6 °F 65% 30.05 in 10.0 mi SSE 3.5 mph - N/A   Clear
7:35 PM 75.2 °F - 62.6 °F 65% 30.07 in 10.0 mi South 3.5 mph - N/A   Clear
7:55 PM 73.4 °F - 64.4 °F 73% 30.06 in 10.0 mi Calm Calm - N/A   Clear
8:15 PM 71.6 °F - 64.4 °F 78% 30.07 in 10.0 mi Calm Calm - N/A   Clear
8:35 PM 71.6 °F - 64.4 °F 78% 30.08 in 10.0 mi Calm Calm - N/A   Clear
8:55 PM 69.8 °F - 64.4 °F 83% 30.08 in 10.0 mi Calm Calm - N/A   Clear
9:15 PM 69.8 °F - 64.4 °F 83% 30.08 in 10.0 mi Calm Calm - N/A   Clear
9:35 PM 69.8 °F - 64.4 °F 83% 30.08 in 10.0 mi SSE 4.6 mph - N/A   Clear
9:55 PM 69.8 °F - 64.4 °F 83% 30.08 in 10.0 mi Calm Calm - N/A   Clear
10:15 PM 69.8 °F - 64.4 °F 83% 30.07 in 10.0 mi SE 3.5 mph - N/A   Clear
10:35 PM 69.8 °F - 64.4 °F 83% 30.07 in 10.0 mi SE 3.5 mph - N/A   Clear
10:55 PM 69.8 °F - 64.4 °F 83% 30.07 in 10.0 mi SE 3.5 mph - N/A   Clear
11:15 PM 69.8 °F - 64.4 °F 83% 30.06 in 10.0 mi SE 4.6 mph - N/A   Clear
11:35 PM 69.8 °F - 64.4 °F 83% 30.06 in 10.0 mi SSE 4.6 mph - N/A   Clear
11:55 PM 71.6 °F - 64.4 °F 78% 30.06 in 10.0 mi SSE 4.6 mph - N/A   Clear